Time,TemperatureF,DewpointF,PressureIn,WindDirection,WindDirectionDegrees,WindSpeedMPH,WindSpeedGustMPH,Humidity,HourlyPrecipIn,Conditions,Clouds,dailyrainin,SoftwareType,DateUTC
2013-06-10 00:03:00,78.0,75.0,30.05,ENE,74,0.0,0.0,92,0.00,,,0.83,,2013-06-10 04:03:00,
2013-06-10 00:12:00,78.0,75.0,30.05,ENE,74,0.0,0.0,92,0.00,,,0.83,,2013-06-10 04:12:00,
2013-06-10 00:23:00,78.0,75.0,30.06,ENE,74,0.0,0.0,92,0.00,,,0.83,,2013-06-10 04:23:00,
2013-06-10 00:33:00,78.0,75.0,30.06,ENE,74,0.0,1.0,92,0.00,,,0.83,,2013-06-10 04:33:00,
2013-06-10 00:42:00,78.0,75.0,30.06,ENE,74,0.0,1.0,92,0.00,,,0.83,,2013-06-10 04:42:00,
2013-06-10 00:52:00,77.0,75.0,30.06,ENE,74,0.0,0.0,93,0.00,,,0.83,,2013-06-10 04:52:00,
2013-06-10 01:02:00,77.0,75.0,30.06,East,94,0.0,0.0,93,0.00,,,0.83,,2013-06-10 05:02:00,
2013-06-10 01:12:00,77.0,75.0,30.06,East,94,0.0,0.0,93,0.00,,,0.83,,2013-06-10 05:12:00,
2013-06-10 01:22:00,77.0,75.0,30.06,ENE,65,0.0,0.0,93,0.00,,,0.83,,2013-06-10 05:22:00,
2013-06-10 01:32:00,77.0,75.0,30.05,ENE,65,0.0,0.0,93,0.00,,,0.83,,2013-06-10 05:32:00,
2013-06-10 01:42:00,77.0,75.0,30.05,ENE,65,0.0,0.0,93,0.00,,,0.83,,2013-06-10 05:42:00,
2013-06-10 01:52:00,77.0,75.0,30.04,East,88,0.0,1.0,93,0.00,,,0.83,,2013-06-10 05:52:00,
2013-06-10 02:02:00,76.0,74.0,30.04,East,92,0.0,0.0,93,0.00,,,0.83,,2013-06-10 06:02:00,
2013-06-10 02:12:00,76.0,74.0,30.04,East,92,0.0,0.0,93,0.00,,,0.83,,2013-06-10 06:12:00,
2013-06-10 02:22:00,76.0,74.0,30.04,East,92,0.0,0.0,93,0.00,,,0.83,,2013-06-10 06:22:00,
2013-06-10 02:32:00,76.0,74.0,30.04,East,92,0.0,0.0,93,0.00,,,0.83,,2013-06-10 06:32:00,
2013-06-10 02:42:00,76.0,74.0,30.04,East,92,0.0,0.0,93,0.00,,,0.83,,2013-06-10 06:42:00,
2013-06-10 02:53:00,76.0,74.0,30.03,East,92,0.0,0.0,93,0.00,,,0.83,,2013-06-10 06:53:00,
2013-06-10 03:02:00,76.0,74.0,30.03,East,92,0.0,0.0,93,0.00,,,0.83,,2013-06-10 07:02:00,
2013-06-10 03:12:00,76.0,74.0,30.03,East,92,0.0,0.0,93,0.00,,,0.83,,2013-06-10 07:12:00,
2013-06-10 03:22:00,76.0,74.0,30.03,East,96,0.0,1.0,93,0.00,,,0.83,,2013-06-10 07:22:00,
2013-06-10 03:32:00,76.0,74.0,30.03,East,96,0.0,0.0,93,0.00,,,0.83,,2013-06-10 07:32:00,
2013-06-10 03:42:00,76.0,74.0,30.03,East,96,0.0,0.0,93,0.00,,,0.83,,2013-06-10 07:42:00,
2013-06-10 03:52:00,75.0,73.0,30.02,East,96,0.0,0.0,94,0.00,,,0.83,,2013-06-10 07:52:00,
2013-06-10 04:02:00,75.0,73.0,30.02,East,96,0.0,0.0,94,0.00,,,0.83,,2013-06-10 08:02:00,
2013-06-10 04:12:00,75.0,73.0,30.02,East,96,0.0,0.0,94,0.00,,,0.83,,2013-06-10 08:12:00,
2013-06-10 04:22:00,75.0,73.0,30.02,East,96,0.0,0.0,94,0.00,,,0.83,,2013-06-10 08:22:00,
2013-06-10 04:32:00,75.0,73.0,30.02,East,96,0.0,0.0,94,0.00,,,0.83,,2013-06-10 08:32:00,
2013-06-10 04:42:00,75.0,73.0,30.02,East,96,0.0,0.0,94,0.00,,,0.83,,2013-06-10 08:42:00,
2013-06-10 04:52:00,75.0,73.0,30.02,East,96,0.0,0.0,94,0.00,,,0.83,,2013-06-10 08:52:00,
2013-06-10 05:02:00,75.0,73.0,30.03,East,96,0.0,0.0,94,0.00,,,0.83,,2013-06-10 09:02:00,
2013-06-10 05:12:00,75.0,73.0,30.03,East,96,0.0,0.0,94,0.00,,,0.83,,2013-06-10 09:12:00,
2013-06-10 05:22:00,75.0,73.0,30.03,East,96,0.0,0.0,94,0.00,,,0.83,,2013-06-10 09:22:00,
2013-06-10 05:32:00,75.0,73.0,30.03,East,96,0.0,0.0,94,0.00,,,0.83,,2013-06-10 09:32:00,
2013-06-10 05:42:00,75.0,73.0,30.03,East,96,0.0,0.0,94,0.00,,,0.83,,2013-06-10 09:42:00,
2013-06-10 05:53:00,75.0,73.0,30.03,East,96,0.0,0.0,94,0.00,,,0.83,,2013-06-10 09:53:00,
2013-06-10 06:03:00,75.0,73.0,30.03,East,96,0.0,0.0,94,0.01,,,0.84,,2013-06-10 10:03:00,
2013-06-10 06:12:00,75.0,73.0,30.03,East,96,0.0,0.0,94,0.01,,,0.84,,2013-06-10 10:12:00,
2013-06-10 06:23:00,75.0,73.0,30.02,East,98,0.0,2.0,94,0.01,,,0.84,,2013-06-10 10:23:00,
2013-06-10 06:33:00,75.0,73.0,30.03,East,98,0.0,0.0,94,0.01,,,0.84,,2013-06-10 10:33:00,
2013-06-10 06:42:00,75.0,73.0,30.03,East,98,0.0,0.0,94,0.01,,,0.84,,2013-06-10 10:42:00,
2013-06-10 06:52:00,75.0,73.0,30.03,East,98,0.0,1.0,95,0.01,,,0.84,,2013-06-10 10:52:00,
2013-06-10 07:03:00,75.0,73.0,30.03,ESE,105,0.0,2.0,95,0.00,,,0.84,,2013-06-10 11:03:00,
2013-06-10 07:12:00,75.0,73.0,30.03,ESE,105,0.0,2.0,95,0.00,,,0.84,,2013-06-10 11:12:00,
2013-06-10 07:22:00,75.0,73.0,30.02,SE,138,0.0,3.0,95,0.00,,,0.84,,2013-06-10 11:22:00,
2013-06-10 07:32:00,75.0,73.0,30.02,SSE,154,1.0,4.0,95,0.00,,,0.84,,2013-06-10 11:32:00,
2013-06-10 07:42:00,75.0,73.0,30.02,SSE,154,1.0,4.0,95,0.00,,,0.84,,2013-06-10 11:42:00,
2013-06-10 07:52:00,75.0,73.0,30.03,ESE,119,0.0,5.0,95,0.00,,,0.84,,2013-06-10 11:52:00,
2013-06-10 08:02:00,76.0,74.0,30.03,ESE,117,0.0,4.0,95,0.00,,,0.84,,2013-06-10 12:02:00,
2013-06-10 08:12:00,76.0,74.0,30.03,ESE,117,0.0,4.0,95,0.00,,,0.84,,2013-06-10 12:12:00,
2013-06-10 08:22:00,76.0,74.0,30.04,SE,129,1.0,4.0,95,0.00,,,0.84,,2013-06-10 12:22:00,
2013-06-10 08:32:00,77.0,75.0,30.04,ESE,119,0.0,3.0,95,0.00,,,0.84,,2013-06-10 12:32:00,
2013-06-10 08:42:00,77.0,75.0,30.04,ESE,119,0.0,3.0,95,0.00,,,0.84,,2013-06-10 12:42:00,
2013-06-10 08:52:00,78.0,76.0,30.05,SE,136,1.0,7.0,95,0.00,,,0.84,,2013-06-10 12:52:00,
2013-06-10 09:02:00,79.0,77.0,30.05,ESE,114,1.0,7.0,93,0.00,,,0.84,,2013-06-10 13:02:00,
2013-06-10 09:12:00,79.0,77.0,30.05,ESE,114,1.0,7.0,93,0.00,,,0.84,,2013-06-10 13:12:00,
2013-06-10 09:22:00,80.0,77.0,30.05,South,181,1.0,5.0,92,0.00,,,0.84,,2013-06-10 13:22:00,
2013-06-10 09:32:00,81.0,78.0,30.06,SSE,161,2.0,5.0,90,0.00,,,0.84,,2013-06-10 13:32:00,
2013-06-10 09:42:00,81.0,78.0,30.06,SSE,161,2.0,5.0,90,0.00,,,0.84,,2013-06-10 13:42:00,
2013-06-10 09:52:00,82.0,77.0,30.06,SE,132,2.0,11.0,86,0.00,,,0.84,,2013-06-10 13:52:00,
2013-06-10 10:02:00,82.0,76.0,30.06,SE,127,4.0,8.0,83,0.00,,,0.84,,2013-06-10 14:02:00,
2013-06-10 10:12:00,82.0,76.0,30.06,SE,127,4.0,8.0,83,0.00,,,0.84,,2013-06-10 14:12:00,
2013-06-10 10:22:00,83.0,77.0,30.05,South,174,2.0,7.0,83,0.00,,,0.84,,2013-06-10 14:22:00,
2013-06-10 10:32:00,84.0,77.0,30.06,SSE,159,3.0,8.0,80,0.00,,,0.84,,2013-06-10 14:32:00,
2013-06-10 10:42:00,84.0,77.0,30.06,SSE,159,3.0,8.0,80,0.00,,,0.84,,2013-06-10 14:42:00,
2013-06-10 10:52:00,85.0,77.0,30.05,ESE,113,3.0,8.0,77,0.00,,,0.84,,2013-06-10 14:52:00,
2013-06-10 11:02:00,86.0,77.0,30.05,East,96,3.0,9.0,75,0.00,,,0.84,,2013-06-10 15:02:00,
2013-06-10 11:12:00,86.0,77.0,30.05,East,96,3.0,9.0,75,0.00,,,0.84,,2013-06-10 15:12:00,
2013-06-10 11:22:00,87.0,76.0,30.05,East,98,4.0,9.0,70,0.00,,,0.84,,2013-06-10 15:22:00,
2013-06-10 11:33:00,86.0,75.0,30.05,ESE,118,4.0,8.0,71,0.00,,,0.84,,2013-06-10 15:33:00,
2013-06-10 11:43:00,86.0,75.0,30.05,ESE,118,4.0,8.0,71,0.00,,,0.84,,2013-06-10 15:43:00,
2013-06-10 11:53:00,86.0,75.0,30.05,South,169,2.0,8.0,70,0.00,,,0.84,,2013-06-10 15:53:00,
2013-06-10 12:03:00,87.0,75.0,30.05,SSW,194,3.0,9.0,68,0.00,,,0.84,,2013-06-10 16:03:00,
2013-06-10 12:13:00,87.0,75.0,30.05,SSW,194,3.0,9.0,68,0.00,,,0.84,,2013-06-10 16:13:00,
2013-06-10 12:23:00,88.0,75.0,30.04,SE,145,0.0,9.0,66,0.00,,,0.84,,2013-06-10 16:23:00,
2013-06-10 12:33:00,88.0,75.0,30.04,SSE,163,2.0,6.0,66,0.00,,,0.84,,2013-06-10 16:33:00,
2013-06-10 12:43:00,89.0,74.0,30.04,SW,234,2.0,8.0,62,0.00,,,0.84,,2013-06-10 16:43:00,
2013-06-10 12:53:00,89.0,74.0,30.04,SW,234,2.0,8.0,62,0.00,,,0.84,,2013-06-10 16:53:00,
2013-06-10 13:03:00,88.0,75.0,30.04,ESE,103,2.0,6.0,66,0.00,,,0.84,,2013-06-10 17:03:00,
2013-06-10 13:14:00,88.0,75.0,30.04,SSE,151,1.0,9.0,65,0.00,,,0.84,,2013-06-10 17:14:00,
2013-06-10 13:27:00,88.0,75.0,30.04,SSE,151,1.0,9.0,65,0.00,,,0.84,,2013-06-10 17:27:00,
2013-06-10 13:38:00,87.0,75.0,30.03,SSE,163,0.0,5.0,67,0.00,,,0.84,,2013-06-10 17:38:00,
2013-06-10 13:48:00,88.0,75.0,30.03,SW,223,2.0,5.0,66,0.00,,,0.84,,2013-06-10 17:48:00,
2013-06-10 13:58:00,88.0,75.0,30.03,SW,223,2.0,5.0,66,0.00,,,0.84,,2013-06-10 17:58:00,
2013-06-10 14:07:00,89.0,78.0,30.03,West,280,3.0,5.0,70,0.00,,,0.84,,2013-06-10 18:07:00,
2013-06-10 14:14:00,89.0,78.0,30.03,West,280,3.0,5.0,70,0.00,,,0.84,,2013-06-10 18:14:00,
2013-06-10 14:25:00,89.0,77.0,30.02,NNW,333,5.0,8.0,69,0.00,,,0.84,,2013-06-10 18:25:00,
2013-06-10 14:35:00,88.0,77.0,30.02,NW,306,3.0,8.0,71,0.00,,,0.84,,2013-06-10 18:35:00,
2013-06-10 14:48:00,88.0,77.0,30.02,NW,306,3.0,8.0,71,0.00,,,0.84,,2013-06-10 18:48:00,
2013-06-10 14:55:00,89.0,78.0,30.02,West,273,3.0,8.0,71,0.00,,,0.84,,2013-06-10 18:55:00,
2013-06-10 15:03:00,89.0,77.0,30.01,WNW,292,3.0,7.0,68,0.00,,,0.84,,2013-06-10 19:03:00,
2013-06-10 15:13:00,89.0,77.0,30.01,WNW,292,3.0,7.0,68,0.00,,,0.84,,2013-06-10 19:13:00,
2013-06-10 15:22:00,88.0,77.0,30.00,West,280,4.0,9.0,70,0.00,,,0.84,,2013-06-10 19:22:00,
2013-06-10 15:33:00,89.0,77.0,30.00,West,271,5.0,10.0,69,0.00,,,0.84,,2013-06-10 19:33:00,
2013-06-10 15:43:00,88.0,77.0,30.00,SW,229,5.0,11.0,70,0.00,,,0.84,,2013-06-10 19:43:00,
2013-06-10 15:53:00,88.0,77.0,30.00,SW,229,5.0,11.0,70,0.00,,,0.84,,2013-06-10 19:53:00,
2013-06-10 16:03:00,88.0,77.0,30.00,West,269,5.0,9.0,69,0.00,,,0.84,,2013-06-10 20:03:00,
2013-06-10 16:12:00,88.0,77.0,30.00,West,269,5.0,9.0,69,0.00,,,0.84,,2013-06-10 20:12:00,
2013-06-10 16:23:00,88.0,77.0,29.99,West,279,5.0,8.0,69,0.00,,,0.84,,2013-06-10 20:23:00,
2013-06-10 16:32:00,88.0,76.0,29.99,WNW,302,5.0,10.0,68,0.00,,,0.84,,2013-06-10 20:32:00,
2013-06-10 16:43:00,88.0,76.0,29.99,WNW,302,5.0,10.0,68,0.00,,,0.84,,2013-06-10 20:43:00,
2013-06-10 16:53:00,88.0,77.0,29.98,West,265,7.0,14.0,70,0.00,,,0.84,,2013-06-10 20:53:00,
2013-06-10 17:02:00,87.0,76.0,29.99,WSW,254,5.0,11.0,71,0.00,,,0.24,,2013-06-10 21:02:00,
2013-06-10 17:12:00,87.0,76.0,29.99,WSW,254,5.0,11.0,71,0.00,,,0.24,,2013-06-10 21:12:00,
2013-06-10 17:23:00,87.0,76.0,29.98,West,279,7.0,11.0,71,0.00,,,0.24,,2013-06-10 21:23:00,
2013-06-10 17:33:00,87.0,77.0,29.98,West,270,5.0,12.0,73,0.00,,,0.24,,2013-06-10 21:33:00,
2013-06-10 17:43:00,87.0,77.0,29.98,West,270,5.0,12.0,73,0.00,,,0.24,,2013-06-10 21:43:00,
2013-06-10 17:53:00,87.0,76.0,30.00,West,262,5.0,10.0,69,0.00,,,0.24,,2013-06-10 21:53:00,
2013-06-10 18:03:00,87.0,76.0,30.00,West,259,5.0,9.0,69,0.00,,,0.14,,2013-06-10 22:03:00,
2013-06-10 18:13:00,87.0,76.0,30.00,West,259,5.0,9.0,69,0.00,,,0.14,,2013-06-10 22:13:00,
2013-06-10 18:22:00,87.0,74.0,30.01,ESE,105,4.0,12.0,65,0.00,,,0.14,,2013-06-10 22:22:00,
2013-06-10 18:33:00,85.0,71.0,30.01,ENE,64,1.0,8.0,64,0.00,,,0.14,,2013-06-10 22:33:00,
2013-06-10 18:42:00,83.0,73.0,30.00,SSE,149,1.0,6.0,73,0.01,,,0.15,,2013-06-10 22:42:00,
2013-06-10 18:52:00,83.0,73.0,30.00,SSE,149,1.0,6.0,73,0.01,,,0.15,,2013-06-10 22:52:00,
2013-06-10 19:03:00,80.0,74.0,29.99,NNE,30,1.0,5.0,81,0.01,,,0.15,,2013-06-10 23:03:00,
2013-06-10 19:12:00,80.0,74.0,29.99,NNE,30,1.0,5.0,81,0.01,,,0.15,,2013-06-10 23:12:00,
2013-06-10 19:22:00,81.0,75.0,30.01,NNE,21,3.0,5.0,81,0.01,,,0.14,,2013-06-10 23:22:00,
2013-06-10 19:32:00,82.0,76.0,30.01,NNE,31,0.0,4.0,81,0.01,,,0.14,,2013-06-10 23:32:00,
2013-06-10 19:42:00,82.0,76.0,30.01,NNE,31,0.0,4.0,81,0.01,,,0.14,,2013-06-10 23:42:00,
2013-06-10 19:52:00,82.0,74.0,30.01,NNE,31,0.0,2.0,76,0.00,,,0.14,,2013-06-10 23:52:00,
2013-06-10 20:02:00,81.0,73.0,30.01,NNE,31,0.0,0.0,77,0.00,,,0.14,,2013-06-11 00:02:00,
2013-06-10 20:12:00,81.0,73.0,30.01,NNE,31,1.0,2.0,77,0.00,,,0.14,,2013-06-11 00:12:00,
2013-06-10 20:22:00,81.0,73.0,30.01,NNE,31,1.0,2.0,77,0.00,,,0.14,,2013-06-11 00:22:00,
2013-06-10 20:32:00,81.0,73.0,30.02,NNE,31,1.0,4.0,78,0.00,,,0.14,,2013-06-11 00:32:00,
2013-06-10 20:42:00,80.0,72.0,30.01,NNE,31,0.0,5.0,78,0.00,,,0.14,,2013-06-11 00:42:00,
2013-06-10 20:52:00,80.0,72.0,30.01,NNE,31,0.0,5.0,78,0.00,,,0.14,,2013-06-11 00:52:00,
2013-06-10 21:02:00,80.0,72.0,30.01,NNE,31,1.0,3.0,78,0.00,,,0.14,,2013-06-11 01:02:00,
2013-06-10 21:12:00,80.0,72.0,30.01,NNE,31,1.0,3.0,78,0.00,,,0.14,,2013-06-11 01:12:00,
2013-06-10 21:22:00,79.0,72.0,30.01,NNE,31,0.0,0.0,79,0.00,,,0.14,,2013-06-11 01:22:00,
2013-06-10 21:33:00,79.0,72.0,30.02,NNE,31,0.0,0.0,80,0.00,,,0.14,,2013-06-11 01:33:00,
2013-06-10 21:42:00,79.0,72.0,30.02,NNE,31,0.0,0.0,80,0.00,,,0.14,,2013-06-11 01:42:00,
2013-06-10 21:53:00,79.0,74.0,30.02,NW,321,0.0,4.0,84,0.00,,,0.14,,2013-06-11 01:53:00,
2013-06-10 22:02:00,79.0,73.0,30.02,NW,321,0.0,0.0,82,0.00,,,0.14,,2013-06-11 02:02:00,
2013-06-10 22:12:00,79.0,73.0,30.02,NW,321,0.0,0.0,82,0.00,,,0.14,,2013-06-11 02:12:00,
2013-06-10 22:22:00,79.0,73.0,30.03,NW,321,0.0,0.0,83,0.00,,,0.02,,2013-06-11 02:22:00,
2013-06-10 22:32:00,78.0,73.0,30.04,NE,51,0.0,4.0,85,0.00,,,0.02,,2013-06-11 02:32:00,
2013-06-10 22:42:00,78.0,73.0,30.04,ESE,116,0.0,2.0,85,0.00,,,0.02,,2013-06-11 02:42:00,
2013-06-10 22:52:00,78.0,73.0,30.04,ESE,116,0.0,2.0,85,0.00,,,0.02,,2013-06-11 02:52:00,
2013-06-10 23:02:00,78.0,74.0,30.04,ESE,105,0.0,2.0,87,0.00,,,0.02,,2013-06-11 03:02:00,
2013-06-10 23:13:00,77.0,73.0,30.04,SE,130,0.0,0.0,87,0.00,,,0.02,,2013-06-11 03:13:00,
2013-06-10 23:22:00,77.0,73.0,30.04,SE,130,0.0,0.0,87,0.00,,,0.02,,2013-06-11 03:22:00,
2013-06-10 23:32:00,77.0,73.0,30.04,SE,130,0.0,0.0,88,0.00,,,0.02,,2013-06-11 03:32:00,
2013-06-10 23:43:00,77.0,73.0,30.04,SE,130,0.0,0.0,87,0.00,,,0.02,,2013-06-11 03:43:00,
2013-06-10 23:53:00,77.0,73.0,30.04,SE,130,0.0,0.0,87,0.00,,,0.02,,2013-06-11 03:53:00,